Location: M.A.R.S.Observatory
(35.4031°N, 81.5481°W)
Time: 06:16:52
(UTC-04:00)

SL-8 R/B - Visible Passes

Search period start: 01 October 2014 00:00
Search period end: 11 October 2014 00:00
Orbit: 659 x 670 km, 48.4° (Epoch: 30 September)

Date Brightness Start Highest point End Pass type
(mag) Time Alt. Az. Time Alt. Az. Time Alt. Az.
01 Oct 5.6 06:00:49 10° S 06:04:50 27° SE 06:08:53 10° ENE visible
02 Oct 6.5 04:53:38 10° SE 04:54:27 10° SE 04:55:17 10° ESE visible
02 Oct 4.0 06:31:34 10° SW 06:36:21 71° SE 06:41:11 10° ENE visible
03 Oct 5.3 05:23:56 23° S 05:25:45 30° SE 05:29:56 10° ENE visible
04 Oct 6.7 04:16:54 10° ESE 04:16:54 10° ESE 04:17:04 10° ESE visible
04 Oct 3.7 05:54:58 31° SW 05:57:17 78° SE 06:02:08 10° NE visible
05 Oct 5.4 04:47:48 29° ESE 04:47:48 29° ESE 04:50:57 10° ENE visible
05 Oct 4.1 06:25:51 18° W 06:29:07 47° NNW 06:33:48 10° NE visible
06 Oct 3.8 05:18:35 76° ENE 05:18:35 76° ENE 05:23:04 10° NE visible
06 Oct 5.0 06:57:11 10° WNW 07:01:15 26° NNW 07:05:20 10° NE visible
07 Oct 6.6 04:11:14 14° ENE 04:11:14 14° ENE 04:11:58 10° ENE visible
07 Oct 4.2 05:49:16 40° WNW 05:50:05 44° NNW 05:54:43 10° NE visible
08 Oct 5.6 04:41:50 27° NE 04:41:50 27° NE 04:44:00 10° NE visible
08 Oct 5.1 06:19:52 18° WNW 06:22:14 25° NNW 06:26:15 10° NE visible
09 Oct 4.9 05:12:22 33° N 05:12:22 33° N 05:15:37 10° NE visible
09 Oct 5.6 06:51:17 10° NW 06:54:38 18° N 06:58:00 10° NE visible
10 Oct 6.8 04:04:50 11° NE 04:04:50 11° NE 04:04:56 10° NE visible
10 Oct 5.1 05:42:52 24° NNW 05:43:14 24° NNW 05:47:09 10° NE visible
